TJS-11

Last updated on Thu Nov 21 2024 00:02:45 GMT+0000 (Coordinated Universal Time)

1 59020U 24037A 24325.74054782 -.00000371 00000+0 00000+0 0 9995 2 59020 5.0645 322.0095 0005722 302.4862 182.6142 1.00275568 2853
UTC large
Height (km)
Speed (km/s)
/
Latitude / Longitude
Inclination (degrees)
Orbital Period (minutes)
Azimuth
Elevation
Range (km)
Doppler Factor

Next 0 passes for location: London (51.5072 / 0.1276)

Sorry there are no passes over London.